Regional Weather Roundup
Issued by NWS

Home | Current Version | Previous Version | Text Only | Print | Product List | Glossary On
Versions: 1 2 3 4 5 6 7 8 9 10 11 12 13 14 15 16 17 18 19 20 21 22 23 24 25 26 27 28 29 30 31 32 33 34 35 36 37 38 39 40 41 42 43 44 45 46 47 48 49 50
000
ASUS43 KBIS 092259
RWRND

NORTH DAKOTA REGIONAL WEATHER ROUNDUP
NATIONAL WEATHER SERVICE BISMARCK ND
600 PM CDT WED JUL 09 2014

NOTE: "FAIR" INDICATES FEW OR NO CLOUDS BELOW 12,000 FEET WITH NO
SIGNIFICANT WEATHER AND/OR OBSTRUCTIONS TO VISIBILITY.


NDZ001>003-009>011-017-100000-
NORTHWEST NORTH DAKOTA

CITY           SKY/WX    TMP DP  RH WIND       PRES   REMARKS
WILLISTON      SUNNY     85  51  31 E9        29.91F
MINOT          SUNNY     77  54  44 S7        29.95F
$$

NDZ018>021-031>035-040>046-100000-
SOUTHWEST NORTH DAKOTA

CITY           SKY/WX    TMP DP  RH WIND       PRES   REMARKS
BISMARCK       SUNNY     78  55  44 SE3       29.98F HAZE
GARRISON         N/A     76  60  57 SE9       29.96F
HETTINGER ARPT MOSUNNY   80  53  39 SE10      29.98F
$$

NDZ004>008-012>016-024-026-027-054-100000-
NORTHEAST NORTH DAKOTA

CITY           SKY/WX    TMP DP  RH WIND       PRES   REMARKS
GRAND FORKS    MOSUNNY   74  51  44 VRB6      29.99S
GRND FRKS AFB  SUNNY     73  50  43 VRB2      30.00F HAZE
DEVILS LAKE    SUNNY     73  50  43 S3        29.98F
$$

NDZ022-023-025-028>030-036>039-047>053-100000-
SOUTHEAST NORTH DAKOTA

CITY           SKY/WX    TMP DP  RH WIND       PRES   REMARKS
FARGO          SUNNY     76  49  38 NE7       29.99S
$$




USA.gov is the U.S. government's official web portal to all federal, state and local government web resources and services.